Wetbulb
48.70 47.56 45.83 45.28 45.33 43.09 43.47 42.57 43.11 47.76 50.03 50.76 50.28 49.82 49.60 49.31 48.77 48.90 48.32 47.79 47.54 47.94 47.93 47.66 47.50 46.91 46.32
52.89 47.41 47.04 49.14 47.74 44.41 43.16 42.70 42.36 45.01 46.78 49.05 49.72 49.45 49.08 48.49 47.89 47.87 47.37 46.70 46.50 46.54 46.79 46.44 46.15 45.79 45.57
52.31 54.05 51.26 44.94 43.23 40.52 39.72 40.69 41.84 43.56 45.11 46.35 48.39 48.76 48.69 48.37 47.78 47.26 47.07 46.11 45.75 44.97 45.23 45.07 44.27 44.46 44.51
51.53 51.71 52.25 46.76 41.29 43.55 45.55 39.32 41.30 40.33 42.01 43.24 44.96 46.91 48.06 47.97 47.24 46.04 46.05 45.60 45.27 44.38 44.41 44.05 42.72 43.00 43.06
51.16 50.98 50.28 45.09 44.20 45.22 40.61 43.63 41.20 40.59 37.82 38.62 39.63 40.91 42.20 46.03 44.96 45.00 45.38 45.40 44.66 43.98 43.89 44.37 43.02 42.09 42.10
52.08 51.03 50.98 50.35 49.90 45.60 43.07 38.54 39.63 38.34 35.86 37.05 37.34 37.75 39.17 40.37 43.19 44.81 44.55 45.25 44.69 43.96 43.30 43.66 43.33 42.13 41.43
48.31 49.91 50.33 50.66 49.80 46.83 43.40 42.52 43.26 41.54 37.29 35.63 36.03 35.62 37.81 38.61 41.68 42.49 43.92 44.36 44.36 44.12 43.14 42.85 42.31 41.59 40.82
45.91 46.42 46.52 46.11 46.70 47.57 46.18 43.40 38.30 36.57 37.52 34.61 34.65 34.87 36.78 36.07 39.99 41.31 41.96 42.80 43.23 43.02 42.89 42.27 41.32 41.15 40.26
43.01 43.39 44.00 44.94 45.45 43.63 39.65 35.77 36.42 35.19 35.40 35.05 33.81 33.52 33.89 34.45 36.01 39.98 40.95 41.65 41.99 42.30 42.47 41.34 41.10 40.55 39.34
38.74 40.39 42.21 42.72 44.26 43.82 43.33 38.07 38.04 33.76 34.61 33.83 32.00 33.00 32.70 32.91 33.72 34.22 36.52 40.80 41.41 41.73 41.73 41.12 40.95 37.18 34.63
36.10 37.05 37.89 38.95 39.70 40.29 40.80 40.88 38.82 38.28 35.42 34.56 31.63 31.30 31.56 30.89 31.16 32.43 34.05 36.13 38.50 39.16 40.81 40.74 40.75 36.97 31.74
34.07 33.73 34.42 35.57 36.70 36.76 36.92 37.51 39.32 38.37 38.59 35.84 32.53 32.47 31.57 28.75 28.98 30.69 31.46 32.83 34.25 33.48 34.58 38.55 38.50 38.21 36.56
33.08 33.16 33.66 36.10 35.97 35.76 34.73 34.18 34.09 34.32 35.18 34.97 33.43 32.54 32.55 31.71 29.19 28.57 27.85 29.98 31.85 31.48 31.57 31.71 31.48 31.26 32.91
33.28 34.29 34.93 33.09 34.23 34.78 33.43 33.70 32.08 32.94 32.38 33.54 33.75 32.60 31.88 31.53 30.48 28.06 29.34 27.31 29.56 29.96 30.27 30.28 30.59 30.52 30.03
29.11 31.12 32.80 33.19 33.38 34.02 32.68 32.20 30.17 31.33 30.84 30.89 32.31 32.14 32.26 30.94 28.49 29.18 27.95 27.82 29.04 28.75 29.03 27.90 29.01 29.34 29.24
25.52 28.12 29.00 29.76 31.04 33.02 32.24 31.26 30.14 30.69 30.48 29.64 29.06 27.90 27.42 28.63 32.91 28.21 28.24 27.53 27.87 28.21 28.65 26.58 26.28 28.10 29.05
24.50 25.51 27.40 31.25 30.27 30.75 31.01 30.74 29.60 29.80 30.05 25.68 26.89 27.21 24.40 23.66 27.02 32.99 27.72 27.08 26.93 26.69 27.47 26.68 25.75 27.30 28.59
MSLP
1020.54 1020.26 1020.43 1020.15 1019.77 1019.85 1019.87 1019.98 1019.86 1019.64 1019.68 1019.83 1020.05 1020.22 1020.36 1020.47 1020.71 1020.87 1020.91 1020.97 1021.15 1021.16 1021.24 1021.21 1021.08 1020.95 1021.21
1019.71 1019.72 1019.44 1018.95 1018.77 1019.20 1019.05 1019.08 1019.03 1018.80 1019.00 1019.15 1019.30 1019.38 1019.53 1019.68 1019.86 1020.04 1020.29 1020.67 1020.83 1020.74 1020.69 1020.83 1020.69 1020.74 1020.75
1019.16 1018.90 1018.69 1018.80 1018.80 1018.92 1018.71 1018.53 1018.34 1018.28 1018.45 1018.56 1018.47 1018.45 1018.52 1018.68 1018.85 1019.10 1019.57 1019.86 1020.14 1020.22 1020.11 1020.11 1020.29 1020.35 1020.32
1018.58 1018.37 1018.40 1018.40 1018.75 1018.72 1018.30 1018.05 1017.79 1017.73 1017.57 1017.52 1017.41 1017.29 1017.32 1017.53 1017.94 1018.21 1018.33 1018.65 1018.75 1019.32 1019.34 1019.38 1019.70 1019.75 1019.85
1017.70 1017.64 1017.57 1017.89 1018.03 1017.75 1017.88 1017.34 1016.94 1017.11 1017.03 1017.05 1016.85 1016.78 1016.72 1016.78 1016.77 1017.10 1017.40 1017.76 1017.91 1018.23 1018.41 1018.48 1018.92 1019.13 1019.33
1016.97 1016.86 1016.48 1016.61 1016.49 1016.99 1017.29 1017.44 1016.83 1016.04 1016.50 1016.33 1016.39 1016.20 1015.66 1015.72 1015.85 1016.22 1016.22 1016.62 1017.05 1017.36 1017.61 1017.49 1017.76 1018.33 1018.82
1017.23 1016.98 1016.51 1015.96 1016.10 1016.10 1016.35 1016.69 1016.12 1015.85 1016.03 1016.21 1015.50 1015.46 1015.03 1015.01 1015.11 1015.43 1015.34 1015.36 1015.98 1016.31 1016.59 1016.81 1017.10 1017.67 1018.10
1018.04 1017.46 1016.97 1016.99 1016.31 1016.13 1016.03 1015.57 1015.67 1015.83 1015.55 1016.27 1015.24 1014.76 1014.20 1014.24 1014.43 1014.64 1014.66 1014.77 1015.12 1015.53 1015.81 1016.28 1016.74 1017.25 1017.58
1017.43 1017.50 1016.69 1017.01 1016.51 1016.08 1015.56 1015.98 1015.78 1015.15 1015.44 1015.53 1014.79 1014.74 1014.46 1013.99 1013.90 1013.89 1013.98 1014.07 1014.32 1014.73 1015.06 1015.46 1015.98 1016.69 1016.97
1016.80 1017.01 1016.59 1016.46 1016.11 1015.92 1015.56 1015.42 1015.35 1014.94 1014.74 1015.09 1014.80 1014.80 1014.32 1013.65 1013.66 1013.77 1013.88 1013.84 1013.97 1014.23 1014.49 1014.90 1015.42 1016.14 1016.82
1017.14 1016.83 1016.52 1016.18 1016.01 1015.67 1015.38 1015.14 1014.74 1014.34 1014.09 1014.43 1014.36 1014.48 1014.36 1013.81 1013.61 1013.57 1013.58 1013.51 1013.67 1013.96 1014.18 1014.51 1015.01 1015.77 1016.68
1017.16 1016.83 1016.45 1016.09 1015.75 1015.50 1015.07 1014.66 1014.17 1013.76 1013.57 1013.73 1013.76 1013.84 1013.80 1013.65 1013.50 1013.21 1013.32 1013.36 1013.68 1014.02 1014.39 1014.47 1014.96 1015.65 1016.13
1017.08 1016.65 1016.28 1015.92 1015.52 1015.12 1014.62 1014.21 1013.82 1013.38 1013.34 1013.40 1013.15 1013.06 1013.29 1013.11 1013.37 1013.33 1013.32 1013.36 1013.35 1014.01 1014.39 1014.48 1015.12 1015.58 1015.61
1017.01 1016.53 1016.05 1015.66 1015.25 1014.86 1014.49 1014.00 1013.64 1013.18 1012.97 1012.90 1012.76 1012.81 1012.70 1012.67 1012.89 1013.02 1013.08 1013.27 1013.42 1013.77 1014.19 1014.43 1014.91 1015.31 1015.51
1017.57 1016.74 1016.02 1015.39 1014.88 1014.50 1014.17 1013.75 1013.53 1013.00 1012.78 1012.56 1012.32 1012.41 1012.42 1012.36 1012.48 1012.48 1012.74 1012.91 1013.04 1013.38 1013.84 1014.36 1014.82 1015.10 1015.54
1017.92 1017.11 1016.21 1015.49 1014.87 1014.28 1013.87 1013.57 1013.14 1012.82 1012.58 1012.45 1012.38 1012.42 1012.30 1012.08 1011.96 1012.02 1012.32 1012.64 1012.80 1013.16 1013.49 1013.83 1014.41 1015.01 1015.35
1017.96 1017.21 1016.46 1015.33 1014.78 1014.07 1013.57 1013.19 1012.82 1012.58 1012.32 1012.26 1012.21 1012.20 1011.98 1011.55 1011.49 1011.35 1011.59 1012.04 1012.61 1013.05 1013.38 1013.52 1013.94 1014.45 1014.88
Wind_Speed
5 4 6 8 7 6 7 8 8 21 23 22 21 20 20 20 21 21 22 21 19 19 17 16 16 15 13
12 6 9 9 8 7 7 8 9 14 20 20 20 21 21 21 21 21 20 19 19 19 18 17 17 15 14
12 9 5 2 4 4 5 7 6 10 15 18 21 23 22 22 21 20 19 21 21 19 19 18 16 16 15
10 10 9 2 2 7 8 4 7 5 12 15 17 20 23 23 22 21 20 22 22 22 21 18 16 18 15
11 10 9 5 8 3 6 6 5 6 4 7 7 8 11 20 19 21 22 24 24 24 22 21 19 17 17
10 11 12 7 6 7 7 3 5 3 3 5 6 8 8 8 17 22 24 25 24 25 23 22 20 18 18
10 9 10 4 5 5 7 6 8 3 3 5 5 8 6 8 20 24 24 24 25 25 24 23 20 19 19
8 8 8 10 8 6 7 7 3 1 3 5 3 5 4 6 18 23 24 24 25 25 24 22 19 19 19
9 14 13 16 11 6 4 2 5 3 6 3 2 3 2 4 7 21 23 24 24 24 23 21 20 19 14
9 10 9 8 11 8 7 6 6 3 6 5 2 2 4 1 2 3 6 19 21 23 22 21 20 7 5
8 7 7 6 5 6 6 8 9 9 5 4 2 2 3 2 1 2 3 5 7 10 18 20 18 10 5
6 7 6 6 6 6 7 8 8 11 4 7 3 5 3 2 3 2 2 1 2 2 2 9 13 14 14
6 6 4 6 7 7 6 7 8 5 4 7 5 4 5 3 2 2 2 3 4 4 4 6 4 2 6
6 7 5 3 6 6 6 6 5 6 4 7 8 5 5 5 4 2 3 3 4 5 5 4 4 3 2
9 9 9 7 6 6 6 6 5 6 5 3 5 6 5 3 4 4 5 3 4 4 5 4 4 4 3
8 9 10 10 9 7 4 7 8 7 6 3 2 1 1 3 8 5 4 3 3 6 4 5 4 4 4
8 10 10 8 12 8 7 6 7 8 7 2 3 5 6 7 1 11 5 4 5 5 4 3 3 5 6
Wind_Direction
219 230 228 231 242 217 226 226 236 235 236 236 235 236 239 242 247 246 245 246 248 250 252 260 262 264 266
260 232 218 232 243 228 230 227 233 243 239 239 237 236 237 238 239 243 243 249 249 250 252 256 261 265 264
260 269 260 231 255 259 242 243 241 250 245 241 238 239 238 237 236 240 239 241 242 244 244 246 254 258 256
254 258 263 229 225 257 264 217 253 227 235 233 236 238 235 234 238 236 230 231 231 239 241 235 239 247 249
251 253 246 228 236 244 243 263 245 225 243 236 235 232 239 240 236 229 230 230 229 234 239 235 233 233 239
258 257 260 251 247 234 244 229 276 192 197 262 202 236 230 221 229 231 231 228 231 232 235 234 230 229 245
288 299 299 267 266 261 234 241 252 224 159 260 186 241 232 236 235 237 235 227 231 232 229 234 226 229 239
320 321 330 327 331 303 272 255 302 237 123 260 177 238 214 224 235 237 236 236 234 236 233 230 225 226 238
307 300 306 294 291 294 272 221 272 238 195 238 200 275 261 235 228 234 236 236 235 234 229 223 221 222 233
334 313 302 293 296 291 288 260 255 296 201 199 181 198 288 214 258 247 248 243 238 233 221 222 214 204 167
308 310 309 304 297 287 274 271 268 259 191 192 196 186 238 294 268 220 225 226 224 223 220 222 205 177 168
305 308 307 302 293 282 273 267 262 264 257 198 235 199 208 231 251 182 196 178 180 152 195 186 183 213 186
292 292 272 291 295 293 283 276 271 267 246 215 219 203 225 238 233 208 148 204 176 165 177 168 162 149 188
303 301 286 274 290 289 289 289 282 281 236 234 233 213 231 227 204 200 178 193 169 172 173 160 160 159 171
325 318 309 304 295 291 283 283 266 281 272 235 224 228 240 194 217 198 181 186 184 169 164 166 175 171 173
319 316 312 311 309 299 274 281 281 281 276 253 201 213 255 249 225 192 188 186 164 174 161 167 168 174 178
314 317 309 305 316 305 298 291 286 279 273 205 209 221 235 245 164 199 182 168 160 169 176 152 151 175 183